Theta_e
319 318 317 316 314 309 314 317 311 323 324 309 309 307 308 299 308 309 307 308 307 305 305 303 302 302 304 307 309 304 308 306 302 303 308 310 309 306 306 302 302 305 304 306
319 318 317 316 314 310 316 313 316 323 319 305 307 309 307 308 306 308 307 305 307 308 306 302 304 305 306 308 308 307 308 302 299 301 305 307 305 307 308 308 308 304 302 307
318 318 318 317 315 311 313 314 310 315 314 313 309 308 306 304 308 307 308 307 308 307 305 308 303 304 305 307 309 309 309 304 303 300 302 306 302 304 306 306 303 304 305 309
318 318 318 317 316 313 313 316 312 314 309 309 308 309 307 304 303 308 310 307 307 306 303 304 304 306 305 306 305 307 307 302 304 305 305 305 304 304 304 304 305 303 306 308
318 318 318 317 316 312 316 312 313 315 310 312 309 305 306 305 305 306 305 306 306 307 305 306 303 306 306 304 308 308 309 302 305 303 304 304 302 304 304 304 305 305 307 308
318 318 318 317 314 309 319 321 318 311 307 309 308 306 306 306 308 307 309 308 307 305 306 308 309 310 310 309 307 306 306 304 303 299 303 303 299 303 303 305 306 306 303 313
318 318 318 317 314 309 316 313 313 309 304 308 307 307 307 306 307 306 308 309 307 308 311 309 308 307 306 306 306 307 304 304 304 299 302 293 303 309 310 307 307 309 311 315
318 318 318 318 316 311 311 314 309 306 303 307 307 307 306 308 309 307 306 307 311 312 307 302 299 299 300 302 303 304 304 303 299 295 296 300 302 308 308 306 306 316 314 318
318 318 318 318 316 312 310 309 310 308 304 303 307 306 306 304 305 305 305 309 311 308 303 300 295 293 297 297 299 305 304 304 299 298 293 291 306 312 316 314 301 320 321 320
317 317 318 318 317 310 310 307 312 308 305 307 308 304 305 309 307 305 306 306 305 308 303 299 296 296 301 296 296 298 298 299 295 296 294 298 310 312 314 298 303 316 317 317
316 316 317 317 318 313 309 308 310 309 308 307 309 308 306 309 309 303 306 304 306 303 301 303 300 298 300 298 301 300 299 298 296 297 294 292 312 310 305 311 317 316 315 315
315 315 316 316 316 313 311 306 311 312 308 309 312 311 312 314 313 307 307 306 307 307 305 307 304 300 303 301 296 305 297 301 299 302 302 312 313 313 315 315 313 316 315 315
315 314 315 315 315 312 310 310 310 311 308 309 307 306 313 318 317 317 306 309 312 309 314 305 307 300 304 298 299 303 303 306 302 301 304 307 309 314 314 315 315 316 315 313
314 314 314 315 314 311 310 311 313 313 310 303 303 314 312 317 318 316 316 315 315 313 309 305 304 299 305 301 304 302 307 308 302 303 306 308 310 312 312 313 316 316 316 314
313 313 314 314 312 310 310 313 315 317 309 302 303 310 313 316 316 314 315 313 312 309 306 305 302 305 305 305 305 301 307 305 301 300 306 307 309 313 312 311 313 316 315 313
313 313 312 312 311 310 311 304 315 317 314 305 299 310 310 312 313 313 313 313 311 310 307 306 308 310 305 302 300 306 307 309 308 306 309 307 310 310 310 312 313 315 318 317
311 310 310 310 309 313 309 306 312 311 316 309 301 302 309 312 311 311 310 311 310 309 306 307 304 305 304 302 302 307 308 308 309 309 308 305 307 306 311 313 314 315 319 315
310 309 309 309 309 309 311 314 312 312 313 310 301 301 305 312 306 306 311 307 308 307 306 309 304 307 305 301 307 309 309 309 308 308 308 307 309 309 311 312 314 314 314 313
309 309 309 310 310 312 311 311 314 319 314 305 305 301 299 310 308 309 309 310 302 311 304 304 305 303 300 305 308 309 309 308 307 309 308 307 306 306 308 310 313 312 314 315
310 312 312 308 313 310 312 313 309 309 310 310 306 306 302 307 305 304 304 307 302 300 303 309 303 302 308 310 310 312 310 310 308 305 304 306 306 306 307 308 312 313 315 317
313 311 309 315 310 314 311 305 304 304 302 305 306 306 302 309 302 301 305 301 302 298 301 302 300 302 307 312 311 312 311 309 308 308 308 307 308 306 306 309 310 313 314 317
314 313 316 316 314 308 302 302 305 303 302 306 304 305 307 308 311 306 305 300 304 296 306 300 297 305 312 311 309 309 310 308 307 307 307 307 306 309 310 308 310 314 314 317
319 313 306 307 306 296 296 292 299 302 304 307 307 304 306 308 309 303 303 299 300 307 299 298 303 311 311 310 309 308 309 307 307 305 306 308 307 309 310 311 312 314 313 314
309 304 292 299 296 298 302 301 303 308 309 309 311 307 303 305 302 306 299 303 306 297 294 297 306 310 310 310 308 307 305 305 305 305 306 306 307 307 309 311 313 312 311 311
306 304 291 297 302 304 305 307 308 308 310 309 310 311 309 305 303 305 302 299 295 298 295 303 310 311 309 307 307 306 305 305 305 305 306 305 307 306 308 309 310 310 309 308
307 304 298 302 298 299 303 303 302 305 305 309 307 299 294 298 300 298 296 295 294 300 304 310 310 309 308 308 306 306 307 307 305 306 306 304 304 303 305 307 307 307 305 305
303 302 308 305 305 303 303 308 302 307 302 298 297 293 291 295 292 293 296 294 297 302 308 309 311 309 308 309 307 306 308 307 308 306 307 304 305 306 305 303 303 304 306 306
Wind_Speed
12 12 12 12 13 22 11 8 7 8 5 9 10 12 3 4 11 9 6 7 11 10 8 11 10 7 4 1 6 11 11 9 9 15 7 7 8 11 19 9 14 10 15 4
11 11 11 10 9 12 9 6 9 7 7 10 10 8 5 9 7 10 10 7 5 4 8 4 4 8 3 2 6 8 3 9 8 10 12 7 12 11 9 12 13 12 12 5
10 10 10 9 7 8 7 6 6 7 8 12 13 9 12 11 6 4 4 4 7 10 8 3 5 7 5 1 1 6 4 15 15 5 7 6 17 7 9 11 10 11 13 12
9 9 9 8 5 7 6 6 6 7 5 11 12 16 11 15 11 8 9 8 11 11 8 9 10 9 6 8 6 6 8 14 13 16 5 8 4 8 9 11 13 14 6 12
9 9 8 8 5 5 6 6 6 4 11 10 12 10 15 16 16 13 13 10 7 5 8 7 4 9 11 8 8 11 11 12 10 12 10 11 12 10 11 11 11 10 13 14
10 8 8 7 5 4 5 4 6 6 10 14 14 14 16 16 12 5 6 10 8 9 6 4 6 5 7 6 7 8 10 10 8 15 18 15 17 14 14 14 14 14 14 7
11 10 8 8 8 10 6 5 5 7 13 13 14 17 16 13 11 11 8 7 10 9 8 3 6 6 4 5 5 9 7 7 11 12 13 21 6 12 6 10 14 11 9 8
12 11 10 9 9 12 5 4 3 4 11 14 12 17 12 12 7 7 8 6 9 8 8 7 7 7 6 9 4 7 9 8 9 13 13 14 10 7 9 11 13 17 9 4
12 12 11 11 10 13 4 4 1 3 7 11 13 9 11 8 11 10 9 5 7 9 7 8 8 8 10 10 9 7 9 6 9 8 13 17 16 11 7 1 10 14 12 7
14 14 13 12 11 14 3 1 2 1 4 14 9 6 10 12 13 10 12 9 6 9 6 6 8 7 2 6 10 8 10 8 12 11 12 8 10 4 1 12 3 7 10 8
16 15 15 14 12 18 7 2 4 4 2 7 10 12 12 16 13 9 12 10 9 9 7 4 6 6 7 8 1 5 9 8 9 10 13 13 9 6 7 7 3 5 6 9
17 16 15 14 12 23 10 3 4 3 2 3 9 15 12 13 10 8 13 4 13 6 5 3 7 4 3 8 6 6 6 6 8 9 7 6 5 7 5 5 5 4 6 9
16 16 15 14 10 25 10 5 7 3 1 7 11 11 3 8 7 4 8 5 5 4 3 6 2 5 3 7 7 9 3 3 6 6 3 5 5 7 1 4 5 4 5 8
15 15 13 12 19 22 5 1 4 2 0 2 7 6 3 7 2 0 6 7 5 8 6 5 4 6 1 4 5 5 4 9 5 10 12 8 9 7 1 5 1 3 5 4
13 11 13 17 21 17 3 1 2 3 2 4 8 8 5 7 7 6 5 6 7 7 5 4 5 3 2 3 4 7 8 7 8 5 6 7 2 7 4 5 5 2 4 5
9 17 19 20 19 14 3 4 4 8 9 5 5 7 6 6 6 6 7 7 7 6 5 4 4 5 4 4 5 3 5 6 7 6 4 4 7 3 4 6 4 2 2 4
20 20 18 15 11 1 2 1 2 3 5 5 8 8 7 8 9 6 6 6 5 5 5 2 6 6 5 7 7 5 6 6 5 0 1 6 6 7 7 4 5 3 8 8
17 15 13 10 5 5 4 3 4 2 7 4 2 4 8 8 7 6 5 6 5 5 5 3 6 8 5 4 8 8 6 6 7 6 5 7 3 7 8 6 6 9 8 9
11 10 9 3 3 3 4 2 5 6 5 6 2 7 6 9 7 5 5 5 6 4 6 8 6 7 7 5 8 9 8 9 8 7 6 6 8 9 9 9 10 6 11 11
8 7 5 3 4 1 4 5 7 5 3 4 4 3 6 10 6 6 4 5 4 5 6 4 6 10 10 11 6 8 9 9 4 7 9 8 9 9 10 9 10 6 6 11
4 2 2 4 2 5 4 3 4 5 3 5 6 5 4 7 7 6 4 3 2 3 5 5 3 4 8 8 9 7 7 5 3 3 2 2 2 5 5 4 7 4 3 6
2 3 2 3 3 3 3 3 3 4 3 3 8 5 2 4 5 5 4 4 4 4 7 3 3 7 10 12 12 9 8 5 4 3 4 3 3 4 4 3 5 7 4 6
5 3 1 2 2 2 4 3 2 2 3 3 4 6 7 3 5 3 4 7 6 7 5 5 5 12 11 12 11 10 9 5 6 4 3 2 3 3 5 3 4 2 6 6
3 3 0 3 2 1 2 5 5 4 5 6 3 3 4 3 5 4 6 5 3 6 5 6 9 13 13 12 11 12 11 8 6 5 5 3 3 4 2 0 3 5 7 6
2 4 4 4 3 5 6 6 3 4 4 5 1 1 2 4 4 4 4 6 6 5 5 5 13 16 14 13 12 13 12 9 8 7 8 6 5 4 5 4 5 7 7 8
1 2 4 1 1 1 1 2 4 5 6 2 2 2 3 3 4 5 7 3 4 3 3 8 14 16 14 13 15 13 11 12 11 10 11 8 7 7 7 8 6 8 7 5
2 1 1 3 1 3 3 1 2 1 2 3 2 3 1 2 3 2 4 6 5 10 4 8 13 14 13 12 14 14 13 10 12 11 11 11 9 9 9 10 7 5 3 3
Wind_Direction
312 317 323 328 335 327 302 285 251 124 179 236 230 244 220 350 166 198 199 303 222 206 180 225 199 169 54 277 292 223 233 285 182 202 115 330 316 226 225 239 231 251 265 42
311 315 319 328 344 356 317 280 298 141 221 248 232 210 219 218 183 197 191 175 254 304 204 156 255 89 79 246 233 356 301 249 230 154 173 207 250 232 272 264 269 252 239 169
309 315 318 325 334 340 296 279 266 185 210 266 287 256 224 198 284 145 273 136 176 181 180 212 187 152 161 137 359 347 299 267 282 282 17 338 193 210 233 261 221 240 246 233
302 306 308 312 308 318 285 243 267 15 253 225 240 263 229 202 176 217 203 199 208 208 195 192 193 164 147 196 142 235 254 264 274 274 125 285 316 199 202 241 265 277 246 309
291 291 294 297 274 298 260 294 312 334 270 289 276 234 247 222 186 188 195 245 197 172 240 217 239 203 193 202 185 235 237 254 280 265 259 240 256 226 245 258 273 276 278 287
275 275 281 282 239 244 294 293 274 267 282 242 240 241 222 228 180 214 270 217 174 212 109 52 8 3 340 22 257 233 251 256 218 253 246 236 242 247 254 256 246 249 249 22
279 273 266 260 210 216 319 314 306 272 256 247 247 237 222 217 181 192 188 193 218 83 103 170 216 195 193 218 232 277 239 248 271 265 264 244 221 267 299 289 238 252 260 323
280 276 269 258 240 202 235 285 278 267 262 276 247 247 230 216 129 148 182 76 71 148 173 196 170 180 188 204 203 235 237 268 244 248 246 263 244 169 234 248 250 347 251 8
269 266 259 250 242 199 212 244 6 313 296 247 309 252 239 186 183 149 99 144 151 185 192 217 210 189 197 171 173 226 233 233 278 238 254 259 61 59 17 340 233 22 1 345
267 266 264 260 247 182 163 102 88 119 249 270 332 249 236 212 163 168 150 152 169 218 235 227 218 205 237 188 204 168 206 231 229 232 253 257 71 72 206 234 62 38 9 344
263 264 265 261 254 183 155 145 170 167 259 315 312 305 287 228 201 157 158 181 193 194 175 191 263 286 169 246 322 171 214 203 225 231 260 236 3 250 272 50 76 30 12 341
261 261 262 253 248 175 163 145 160 198 210 259 280 293 306 309 334 180 155 279 174 196 136 156 264 215 145 225 184 175 254 279 339 336 37 74 53 38 47 12 351 19 344 332
262 260 259 249 249 171 165 147 141 165 158 237 223 226 310 314 347 63 181 212 116 100 25 175 242 231 264 199 238 173 217 275 264 304 245 263 211 134 291 356 10 16 357 333
259 260 250 241 173 158 134 194 167 99 207 196 176 171 215 278 122 48 359 92 135 125 219 159 213 231 180 281 26 253 68 146 238 262 266 273 235 245 274 328 316 340 3 351
250 248 258 155 142 145 123 285 151 261 286 194 149 133 174 178 151 148 175 172 175 192 190 202 210 228 153 242 295 239 189 223 233 266 34 307 62 50 133 255 306 348 1 358
241 133 122 121 129 141 188 104 271 240 232 273 137 77 159 141 144 161 170 176 204 215 231 219 88 57 263 206 245 200 285 173 258 269 46 333 299 175 249 261 258 357 73 33
101 103 106 114 142 137 288 79 66 186 231 242 150 145 164 146 147 157 170 184 204 232 210 230 205 173 222 254 230 227 212 193 203 202 188 234 231 252 236 227 203 173 107 83
98 102 107 110 155 271 217 157 178 241 251 257 190 97 154 195 174 160 170 164 173 195 222 147 220 135 230 244 237 246 198 193 185 202 218 274 199 205 212 225 255 166 128 144
111 112 128 120 236 223 75 96 259 230 291 304 181 153 152 178 218 104 198 206 191 110 228 216 202 206 210 227 215 194 199 200 209 210 242 256 256 263 246 226 238 219 167 159
144 200 201 141 81 53 215 180 183 204 229 249 255 175 143 185 166 181 166 211 168 209 194 122 235 245 233 210 208 173 184 203 229 256 254 243 254 236 230 201 232 217 196 187
234 269 63 79 103 236 216 180 165 175 204 222 239 221 149 195 184 155 174 270 209 230 174 222 264 257 212 146 138 138 142 185 201 319 329 253 313 301 235 196 259 182 195 173
319 290 131 162 242 226 247 191 170 213 209 160 220 183 101 162 120 174 218 192 245 221 148 199 233 224 117 135 145 161 157 146 135 120 157 162 236 199 163 160 200 200 112 166
249 243 183 201 184 289 184 175 259 205 144 204 196 198 138 200 199 150 209 228 216 130 183 216 239 122 142 146 151 148 111 138 121 127 149 181 196 190 235 180 168 153 132 160
244 218 60 260 200 298 345 353 31 33 11 19 345 281 179 242 226 159 223 198 142 203 197 230 150 145 145 145 145 141 134 130 129 108 99 74 124 141 177 126 149 141 114 135
330 61 22 11 19 18 18 353 52 24 346 336 327 319 298 224 231 216 230 200 221 179 200 245 118 140 143 141 139 126 143 140 140 129 110 108 96 100 116 105 108 102 113 113
72 133 158 194 109 315 31 360 52 358 336 351 35 53 14 266 291 224 213 228 167 214 219 111 135 139 144 143 139 137 123 121 116 118 110 113 99 104 102 98 84 116 116 123
154 123 205 210 351 53 114 216 131 96 337 32 351 200 198 314 269 275 12 1 357 327 82 138 134 141 143 149 121 135 147 136 124 125 119 120 120 106 115 120 136 131 143 118